Location: Wald
(31.7579°N, 86.6655°W)
Time: 00:52:27
(UTC+00:00)

BREEZE-M R/B - Pass Details

Date: 14 July 2020
Orbit: 311 x 4532 km, 49.7° (Epoch: 12 August)

Event Time Altitude Azimuth Distance (km) Brightness Sun altitude
Rises 02:19:06 0° 310° (NW) 6,609 10.2 -16.1°
Reaches altitude 10° 02:24:33 10° 313° (NW) 4,857 8.9 -17.0°
Maximum altitude 02:36:06 67° 35° (NE) 1,239 4.5 -18.9°
Enters shadow 02:38:59 31° 109° (ESE) 1,526 4.5 -19.3°
